LGX77S LFRS-LIRP

Flight info

Callsign LGX77S
Flight time 2h 6m
Altitude 25000
Route LUGEN UM184 TUPAR/N0452F290 DCT DIDRU DCT BEBIX/N0435F280 DCT VALKU/N0449F370 DCT LERGA DCT TOZOT DCT OTROT DCT RETNO DCT KOLON DCT RAPUR G374 BTA/N0442F380 L146 MOULE/N0382F190 L146 ELB
Aircraft A320/M-SDE3FGHIRWY/LB1

Departure

Time 2026-05-04 16:35
Airport Nantes Atlantique Airport (LFRS)

Arrival

Time 2026-05-04 18:41
Airport Pisa International Airport (LIRP)
Time Latitude Longitude Altitude Speed Heading
2026-05-04 16:09 47.15690 -1.60210 98 ft 0 kts 36°
2026-05-04 16:17 47.15689 -1.60210 98 ft 0 kts 36°
2026-05-04 16:25 47.15679 -1.60221 99 ft 4 kts 36°
2026-05-04 16:26 47.15639 -1.60319 97 ft 1 kts 139°
2026-05-04 16:26 47.15641 -1.60321 97 ft 0 kts 139°
2026-05-04 16:28 47.15631 -1.60307 96 ft 7 kts 139°
2026-05-04 16:28 47.15520 -1.60366 100 ft 7 kts 272°
2026-05-04 16:29 47.15436 -1.60716 97 ft 19 kts 207°
2026-05-04 16:30 47.15070 -1.60996 97 ft 22 kts 208°
2026-05-04 16:31 47.14792 -1.61211 95 ft 24 kts 208°
2026-05-04 16:31 47.14379 -1.61521 87 ft 24 kts 207°
2026-05-04 16:32 47.14145 -1.61861 80 ft 11 kts 283°
2026-05-04 16:33 47.14210 -1.61914 85 ft 0 kts 25°
2026-05-04 16:34 47.14860 -1.61424 97 ft 117 kts 27°
2026-05-04 16:34 47.15750 -1.60763 122 ft 165 kts 26°
2026-05-04 16:35 47.17258 -1.56745 1861 ft 182 kts 117°
2026-05-04 16:35 47.13426 -1.53432 2785 ft 253 kts 156°
2026-05-04 16:36 47.11763 -1.52366 3410 ft 266 kts 155°
2026-05-04 16:36 47.08349 -1.50071 5146 ft 275 kts 154°
2026-05-04 16:37 47.05182 -1.46868 6857 ft 280 kts 137°
2026-05-04 16:37 47.03743 -1.44990 7705 ft 281 kts 136°
2026-05-04 16:37 47.00812 -1.41125 9427 ft 285 kts 136°
2026-05-04 16:38 46.97780 -1.37136 10506 ft 311 kts 137°
2026-05-04 16:39 46.92519 -1.30282 11845 ft 350 kts 137°
2026-05-04 16:39 46.88845 -1.25523 13315 ft 355 kts 138°
2026-05-04 16:40 46.85119 -1.20704 14658 ft 359 kts 139°
2026-05-04 16:40 46.81348 -1.15817 15903 ft 365 kts 140°
2026-05-04 16:41 46.77519 -1.10849 17101 ft 371 kts 140°
2026-05-04 16:41 46.71663 -1.03282 18811 ft 381 kts 140°
2026-05-04 16:42 46.65664 -0.95541 20467 ft 387 kts 141°
2026-05-04 16:43 46.61600 -0.90309 21558 ft 392 kts 141°
2026-05-04 16:43 46.57491 -0.85035 22556 ft 396 kts 141°
2026-05-04 16:43 46.55422 -0.82374 23057 ft 398 kts 141°
2026-05-04 16:44 46.47065 -0.71615 24636 ft 405 kts 142°
2026-05-04 16:45 46.43057 -0.65833 25418 ft 412 kts 131°
2026-05-04 16:46 46.38857 -0.54764 26520 ft 420 kts 122°
2026-05-04 16:46 46.36192 -0.47232 27206 ft 422 kts 122°
2026-05-04 16:47 46.33504 -0.39668 27890 ft 424 kts 122°
2026-05-04 16:47 46.30793 -0.32076 28528 ft 426 kts 122°
2026-05-04 16:48 46.26712 -0.20646 28937 ft 426 kts 122°
2026-05-04 16:48 46.25345 -0.16836 28937 ft 426 kts 122°
2026-05-04 16:49 46.19894 -0.01690 28935 ft 426 kts 123°
2026-05-04 16:50 46.17634 0.06314 28933 ft 440 kts 109°
2026-05-04 16:50 46.16233 0.14937 28932 ft 440 kts 108°
2026-05-04 16:51 46.14119 0.27779 28932 ft 439 kts 109°
2026-05-04 16:52 46.11261 0.44915 28932 ft 442 kts 108°
2026-05-04 16:53 46.09092 0.57813 28923 ft 444 kts 108°
2026-05-04 16:54 46.06175 0.75086 28917 ft 444 kts 108°
2026-05-04 16:55 46.01691 1.01156 28916 ft 449 kts 108°
2026-05-04 16:56 45.97922 1.22888 28922 ft 451 kts 108°
2026-05-04 16:57 45.95616 1.36024 28889 ft 450 kts 107°
2026-05-04 16:58 45.95316 1.49444 27901 ft 452 kts 90°
2026-05-04 16:58 45.95505 1.53972 27913 ft 453 kts 90°
2026-05-04 16:59 45.95850 1.63037 27914 ft 456 kts 91°
2026-05-04 17:00 45.96529 1.81327 27911 ft 458 kts 91°
2026-05-04 17:00 45.97026 1.95006 27909 ft 459 kts 91°
2026-05-04 17:01 45.97361 2.04159 27908 ft 458 kts 91°
2026-05-04 17:01 45.97686 2.13292 27906 ft 458 kts 91°
2026-05-04 17:02 45.97993 2.22433 27904 ft 458 kts 91°
2026-05-04 17:02 45.98294 2.31579 27904 ft 458 kts 91°
2026-05-04 17:03 45.98439 2.36105 27906 ft 458 kts 91°
2026-05-04 17:03 45.98584 2.40689 27901 ft 456 kts 91°
2026-05-04 17:03 45.98867 2.49757 27898 ft 455 kts 91°
2026-05-04 17:04 45.99144 2.58878 27906 ft 455 kts 91°
2026-05-04 17:04 45.99413 2.67945 27901 ft 455 kts 91°
2026-05-04 17:05 45.99014 2.76901 27895 ft 445 kts 108°
2026-05-04 17:05 45.96552 2.84934 27897 ft 438 kts 128°
2026-05-04 17:06 45.92437 2.91232 27919 ft 432 kts 142°
2026-05-04 17:06 45.90177 2.94105 27918 ft 432 kts 141°
2026-05-04 17:07 45.85681 2.99838 27925 ft 433 kts 141°
2026-05-04 17:07 45.84178 3.01755 27918 ft 433 kts 141°
2026-05-04 17:07 45.81184 3.05567 27915 ft 433 kts 141°
2026-05-04 17:07 45.78954 3.08397 27913 ft 433 kts 141°
2026-05-04 17:08 45.76695 3.11260 27924 ft 432 kts 142°
2026-05-04 17:08 45.72178 3.16966 27914 ft 434 kts 143°
2026-05-04 17:08 45.69907 3.19830 27913 ft 434 kts 143°
2026-05-04 17:09 45.67628 3.22700 27917 ft 434 kts 143°
2026-05-04 17:09 45.65369 3.25543 27914 ft 434 kts 143°
2026-05-04 17:09 45.63117 3.28379 27923 ft 434 kts 143°
2026-05-04 17:10 45.58572 3.34105 27924 ft 434 kts 143°
2026-05-04 17:10 45.51782 3.42620 27932 ft 434 kts 143°
2026-05-04 17:11 45.49501 3.45468 27938 ft 433 kts 143°
2026-05-04 17:11 45.47234 3.48298 27938 ft 433 kts 143°
2026-05-04 17:11 45.42721 3.53924 27936 ft 433 kts 143°
2026-05-04 17:12 45.40466 3.56735 27952 ft 433 kts 143°
2026-05-04 17:12 45.35922 3.62392 27954 ft 433 kts 143°
2026-05-04 17:13 45.29122 3.70847 27951 ft 434 kts 141°
2026-05-04 17:14 45.24316 3.81888 27989 ft 453 kts 111°
2026-05-04 17:14 45.23452 3.86168 27976 ft 455 kts 111°
2026-05-04 17:14 45.21696 3.94825 27987 ft 458 kts 111°
2026-05-04 17:15 45.20805 3.99180 27987 ft 458 kts 111°
2026-05-04 17:15 45.19015 4.07825 27987 ft 458 kts 111°
2026-05-04 17:16 45.17216 4.16483 27989 ft 458 kts 111°
2026-05-04 17:16 45.14824 4.28038 27993 ft 459 kts 111°
2026-05-04 17:17 45.13625 4.33799 28000 ft 459 kts 111°
2026-05-04 17:17 45.10628 4.44951 28180 ft 449 kts 126°
2026-05-04 17:18 45.08876 4.48570 28458 ft 445 kts 135°
2026-05-04 17:18 45.04817 4.55229 29011 ft 447 kts 137°
2026-05-04 17:19 45.00734 4.61888 29545 ft 450 kts 136°
2026-05-04 17:19 44.96628 4.68582 30113 ft 451 kts 136°
2026-05-04 17:20 44.92548 4.75241 30596 ft 451 kts 137°
2026-05-04 17:20 44.88409 4.81961 31086 ft 450 kts 137°
2026-05-04 17:20 44.86351 4.85283 31330 ft 450 kts 137°
2026-05-04 17:21 44.82223 4.91926 31836 ft 450 kts 137°
2026-05-04 17:21 44.78101 4.98557 32319 ft 451 kts 137°
2026-05-04 17:22 44.76035 5.01875 32583 ft 451 kts 137°
2026-05-04 17:22 44.73970 5.05194 32841 ft 451 kts 137°
2026-05-04 17:23 44.67773 5.15142 33640 ft 450 kts 137°
2026-05-04 17:23 44.65703 5.18445 33914 ft 450 kts 137°
2026-05-04 17:23 44.61571 5.25027 34398 ft 449 kts 137°
2026-05-04 17:24 44.59505 5.28313 34638 ft 449 kts 138°
2026-05-04 17:24 44.53330 5.38122 35341 ft 448 kts 137°
2026-05-04 17:25 44.51271 5.41389 35581 ft 447 kts 137°
2026-05-04 17:25 44.47168 5.47888 36085 ft 444 kts 137°
2026-05-04 17:26 44.43081 5.54352 36602 ft 442 kts 137°
2026-05-04 17:26 44.37098 5.64181 37043 ft 452 kts 129°
2026-05-04 17:27 44.33543 5.71508 37018 ft 458 kts 129°
2026-05-04 17:28 44.26368 5.86302 37032 ft 461 kts 130°
2026-05-04 17:29 44.15471 6.08544 37044 ft 463 kts 130°
2026-05-04 17:31 44.06363 6.27042 37056 ft 465 kts 130°
2026-05-04 17:32 43.97158 6.45595 37058 ft 467 kts 130°
2026-05-04 17:33 43.89724 6.60470 37061 ft 468 kts 130°
2026-05-04 17:34 43.82309 6.75294 37054 ft 469 kts 131°
2026-05-04 17:35 43.72945 6.93842 37057 ft 471 kts 131°
2026-05-04 17:36 43.69265 7.01347 37057 ft 473 kts 129°
2026-05-04 17:36 43.65723 7.09015 37057 ft 473 kts 128°
2026-05-04 17:37 43.62195 7.16675 37059 ft 473 kts 129°
2026-05-04 17:37 43.58647 7.24250 37057 ft 473 kts 129°
2026-05-04 17:38 43.55051 7.31845 37056 ft 473 kts 130°
2026-05-04 17:38 43.51447 7.39447 37051 ft 473 kts 130°
2026-05-04 17:39 43.46057 7.50796 37043 ft 473 kts 130°
2026-05-04 17:39 43.42456 7.58362 37041 ft 472 kts 130°
2026-05-04 17:40 43.38856 7.65896 37043 ft 474 kts 130°
2026-05-04 17:40 43.35221 7.73475 37044 ft 475 kts 130°
2026-05-04 17:41 43.31585 7.81060 37038 ft 476 kts 130°
2026-05-04 17:41 43.27943 7.88643 37038 ft 476 kts 130°
2026-05-04 17:42 43.24290 7.96212 37038 ft 476 kts 130°
2026-05-04 17:42 43.20620 8.03786 37037 ft 478 kts 130°
2026-05-04 17:43 43.16936 8.11367 37037 ft 478 kts 130°
2026-05-04 17:43 43.13245 8.18960 37020 ft 478 kts 130°
2026-05-04 17:44 43.09560 8.26531 37039 ft 478 kts 130°
2026-05-04 17:44 43.05865 8.34098 37032 ft 478 kts 130°
2026-05-04 17:45 43.02183 8.41622 37034 ft 480 kts 130°
2026-05-04 17:45 42.98463 8.49194 37037 ft 480 kts 130°
2026-05-04 17:46 42.94734 8.56762 37037 ft 480 kts 130°
2026-05-04 17:46 42.91001 8.64305 37039 ft 479 kts 130°
2026-05-04 17:47 42.87560 8.72150 37025 ft 484 kts 123°
2026-05-04 17:47 42.84352 8.80251 37038 ft 486 kts 124°
2026-05-04 17:48 42.81144 8.88312 37037 ft 486 kts 124°
2026-05-04 17:48 42.77916 8.96408 37036 ft 486 kts 124°
2026-05-04 17:49 42.74677 9.04498 37041 ft 486 kts 124°
2026-05-04 17:49 42.71437 9.12575 37046 ft 488 kts 123°
2026-05-04 17:50 42.68192 9.20668 36583 ft 487 kts 123°
2026-05-04 17:50 42.66561 9.24725 36329 ft 490 kts 123°
2026-05-04 17:50 42.64924 9.28789 36073 ft 491 kts 124°
2026-05-04 17:51 42.63295 9.32821 35404 ft 494 kts 124°
2026-05-04 17:51 42.61625 9.36943 34414 ft 501 kts 124°
2026-05-04 17:51 42.60113 9.41239 33318 ft 511 kts 115°
2026-05-04 17:51 42.59108 9.45919 32183 ft 521 kts 104°
2026-05-04 17:52 42.58698 9.50829 31100 ft 526 kts 93°
2026-05-04 17:52 42.58893 9.55796 29848 ft 531 kts 82°
2026-05-04 17:52 42.59684 9.60680 28886 ft 527 kts 76°
2026-05-04 17:52 42.60552 9.65436 28362 ft 513 kts 77°
2026-05-04 17:53 42.61371 9.70124 27580 ft 508 kts 77°
2026-05-04 17:53 42.62157 9.74780 26838 ft 502 kts 78°
2026-05-04 17:53 42.62921 9.79368 26176 ft 495 kts 78°
2026-05-04 17:53 42.63673 9.83894 25507 ft 488 kts 77°
2026-05-04 17:54 42.64422 9.88361 24859 ft 482 kts 77°
2026-05-04 17:54 42.65162 9.92719 24178 ft 477 kts 77°
2026-05-04 17:54 42.65907 9.97082 23503 ft 472 kts 77°
2026-05-04 17:54 42.66643 10.01392 22845 ft 465 kts 77°
2026-05-04 17:55 42.67369 10.05648 22227 ft 458 kts 77°
2026-05-04 17:55 42.68084 10.09835 21654 ft 452 kts 77°
2026-05-04 17:55 42.68788 10.13969 21115 ft 445 kts 78°
2026-05-04 17:55 42.69475 10.18042 20592 ft 439 kts 78°
2026-05-04 17:56 42.70150 10.22065 20071 ft 434 kts 78°
2026-05-04 17:56 42.70815 10.26046 19575 ft 429 kts 78°
2026-05-04 17:56 42.71581 10.29940 19084 ft 425 kts 69°
2026-05-04 17:56 42.73027 10.33407 18577 ft 421 kts 50°
2026-05-04 17:57 42.75157 10.36125 18017 ft 416 kts 32°
2026-05-04 17:57 42.77717 10.37827 17575 ft 406 kts 15°
2026-05-04 17:57 42.80457 10.38464 17135 ft 395 kts 358°
2026-05-04 17:57 42.83169 10.38211 16706 ft 389 kts 351°
2026-05-04 17:58 42.85861 10.37839 16275 ft 387 kts 351°
2026-05-04 17:58 42.88528 10.37466 15854 ft 384 kts 351°
2026-05-04 17:58 42.91180 10.37097 15428 ft 382 kts 351°
2026-05-04 17:58 42.93781 10.36736 15017 ft 379 kts 351°
2026-05-04 17:59 42.96400 10.36378 14607 ft 377 kts 351°
2026-05-04 17:59 42.99036 10.36022 14185 ft 374 kts 351°
2026-05-04 17:59 43.04186 10.35322 13328 ft 370 kts 351°
2026-05-04 18:00 43.06728 10.34971 13013 ft 363 kts 351°
2026-05-04 18:00 43.09191 10.34637 12884 ft 349 kts 352°
2026-05-04 18:00 43.11566 10.34316 12752 ft 336 kts 351°
2026-05-04 18:00 43.13854 10.34007 12626 ft 325 kts 351°
2026-05-04 18:01 43.16070 10.33703 12466 ft 315 kts 351°
2026-05-04 18:01 43.18230 10.33405 12243 ft 309 kts 352°
2026-05-04 18:01 43.20339 10.33111 12029 ft 308 kts 352°
2026-05-04 18:02 43.24576 10.32516 11539 ft 302 kts 352°
2026-05-04 18:02 43.26659 10.32506 11293 ft 299 kts
2026-05-04 18:02 43.28661 10.33265 10980 ft 299 kts 24°
2026-05-04 18:02 43.29888 10.34191 10795 ft 298 kts 34°
2026-05-04 18:03 43.31549 10.35886 10537 ft 297 kts 37°
2026-05-04 18:03 43.33189 10.37576 10283 ft 293 kts 37°
2026-05-04 18:03 43.34792 10.39223 10159 ft 283 kts 37°
2026-05-04 18:03 43.36331 10.40798 10003 ft 275 kts 37°
2026-05-04 18:04 43.37844 10.42346 9862 ft 267 kts 38°
2026-05-04 18:04 43.39336 10.43874 9785 ft 268 kts 38°
2026-05-04 18:04 43.42316 10.46934 9538 ft 266 kts 38°
2026-05-04 18:05 43.43800 10.48462 9401 ft 268 kts 39°
2026-05-04 18:05 43.45285 10.49990 9262 ft 266 kts 38°
2026-05-04 18:05 43.46813 10.51469 9116 ft 265 kts 27°
2026-05-04 18:05 43.48591 10.52045 8977 ft 265 kts 355°
2026-05-04 18:06 43.51570 10.49611 8692 ft 256 kts 303°
2026-05-04 18:06 43.52662 10.47613 8547 ft 259 kts 304°
2026-05-04 18:06 43.53637 10.45593 8400 ft 254 kts 288°
2026-05-04 18:07 43.53865 10.43293 8262 ft 235 kts 256°
2026-05-04 18:07 43.53279 10.41292 8139 ft 219 kts 229°
2026-05-04 18:07 43.52192 10.39944 8031 ft 205 kts 214°
2026-05-04 18:07 43.51061 10.38792 7921 ft 201 kts 214°
2026-05-04 18:08 43.49939 10.37639 7808 ft 201 kts 214°
2026-05-04 18:08 43.48816 10.36483 7716 ft 202 kts 215°
2026-05-04 18:08 43.47692 10.35328 7614 ft 200 kts 214°
2026-05-04 18:08 43.46571 10.34178 7521 ft 201 kts 214°
2026-05-04 18:09 43.44316 10.31859 7327 ft 202 kts 214°
2026-05-04 18:09 43.42076 10.29567 7129 ft 201 kts 214°
2026-05-04 18:10 43.40953 10.28413 6990 ft 200 kts 214°
2026-05-04 18:10 43.39847 10.27278 6806 ft 197 kts 214°
2026-05-04 18:10 43.38750 10.26152 6642 ft 198 kts 214°
2026-05-04 18:10 43.37644 10.25020 6472 ft 198 kts 214°
2026-05-04 18:11 43.36615 10.23766 6218 ft 198 kts 233°
2026-05-04 18:11 43.36145 10.22000 6032 ft 203 kts 264°
2026-05-04 18:11 43.36436 10.20093 5854 ft 210 kts 297°
2026-05-04 18:11 43.37299 10.18442 5672 ft 214 kts 304°
2026-05-04 18:12 43.38194 10.16807 5456 ft 214 kts 304°
2026-05-04 18:12 43.39149 10.15242 5272 ft 216 kts 316°
2026-05-04 18:12 43.40427 10.14150 5084 ft 219 kts 338°
2026-05-04 18:12 43.41901 10.13741 4878 ft 220 kts
2026-05-04 18:13 43.43398 10.14085 4657 ft 217 kts 23°
2026-05-04 18:13 43.44672 10.15109 4501 ft 207 kts 40°
2026-05-04 18:13 43.46903 10.17383 4119 ft 192 kts 40°
2026-05-04 18:14 43.47954 10.18454 3954 ft 184 kts 41°
2026-05-04 18:14 43.48957 10.19480 3796 ft 175 kts 41°
2026-05-04 18:14 43.49927 10.20471 3625 ft 167 kts 41°
2026-05-04 18:15 43.51712 10.22299 3386 ft 157 kts 41°
2026-05-04 18:15 43.53463 10.24094 3092 ft 156 kts 42°
2026-05-04 18:15 43.54329 10.24981 2955 ft 154 kts 42°
2026-05-04 18:16 43.55188 10.25863 2873 ft 155 kts 41°
2026-05-04 18:16 43.56055 10.26751 2749 ft 155 kts 41°
2026-05-04 18:16 43.56915 10.27633 2568 ft 153 kts 41°
2026-05-04 18:17 43.58597 10.29359 2190 ft 149 kts 41°
2026-05-04 18:17 43.59431 10.30217 1991 ft 149 kts 41°
2026-05-04 18:17 43.61077 10.31909 1597 ft 148 kts 40°
2026-05-04 18:18 43.61901 10.32756 1390 ft 148 kts 40°
2026-05-04 18:18 43.62729 10.33606 1200 ft 147 kts 40°
2026-05-04 18:18 43.63545 10.34447 998 ft 147 kts 41°
2026-05-04 18:18 43.64363 10.35289 807 ft 147 kts 40°
2026-05-04 18:19 43.66004 10.36985 469 ft 148 kts 38°
2026-05-04 18:19 43.66824 10.37822 245 ft 151 kts 38°
2026-05-04 18:19 43.67799 10.38819 532 ft 189 kts 37°
2026-05-04 18:20 43.68972 10.39954 1007 ft 223 kts 39°
2026-05-04 18:20 43.70293 10.41277 1686 ft 247 kts 39°
2026-05-04 18:20 43.71670 10.42655 2756 ft 240 kts 39°
2026-05-04 18:20 43.73085 10.44082 3392 ft 268 kts 39°
2026-05-04 18:21 43.74779 10.45462 3897 ft 296 kts 24°
2026-05-04 18:21 43.76872 10.46272 3903 ft 325 kts
2026-05-04 18:21 43.79038 10.46203 4025 ft 297 kts 349°
2026-05-04 18:21 43.80852 10.45223 4298 ft 267 kts 328°
2026-05-04 18:22 43.82250 10.43667 4200 ft 252 kts 319°
2026-05-04 18:22 43.83396 10.41890 3906 ft 245 kts 300°
2026-05-04 18:22 43.84096 10.39800 3607 ft 241 kts 288°
2026-05-04 18:22 43.84602 10.37598 3309 ft 238 kts 285°
2026-05-04 18:23 43.85082 10.35425 2996 ft 234 kts 285°
2026-05-04 18:23 43.85548 10.33283 2701 ft 231 kts 285°
2026-05-04 18:23 43.86009 10.31170 2416 ft 228 kts 285°
2026-05-04 18:23 43.86264 10.29039 2122 ft 220 kts 263°
2026-05-04 18:24 43.85868 10.27091 2013 ft 203 kts 239°
2026-05-04 18:24 43.85201 10.25444 2016 ft 191 kts 238°
2026-05-04 18:24 43.84551 10.23848 2017 ft 188 kts 238°
2026-05-04 18:24 43.83909 10.22272 2008 ft 188 kts 238°
2026-05-04 18:25 43.83269 10.20701 2007 ft 188 kts 238°
2026-05-04 18:25 43.82627 10.19126 2014 ft 188 kts 236°
2026-05-04 18:25 43.81984 10.17546 2013 ft 189 kts 236°
2026-05-04 18:25 43.81346 10.15983 2012 ft 188 kts 235°
2026-05-04 18:26 43.80696 10.14399 2013 ft 190 kts 236°
2026-05-04 18:26 43.80048 10.12815 1997 ft 188 kts 237°
2026-05-04 18:26 43.79402 10.11238 2001 ft 189 kts 236°
2026-05-04 18:26 43.78750 10.09652 1996 ft 191 kts 236°
2026-05-04 18:27 43.78091 10.08050 1999 ft 191 kts 236°
2026-05-04 18:27 43.77439 10.06461 1999 ft 189 kts 235°
2026-05-04 18:27 43.76793 10.04883 1995 ft 189 kts 234°
2026-05-04 18:27 43.76141 10.03290 1995 ft 190 kts 234°
2026-05-04 18:28 43.75489 10.01699 1991 ft 190 kts 235°
2026-05-04 18:28 43.74839 10.00113 1994 ft 190 kts 235°
2026-05-04 18:28 43.74205 9.98510 1991 ft 192 kts 244°
2026-05-04 18:28 43.73840 9.96715 1992 ft 194 kts 250°
2026-05-04 18:29 43.73468 9.94926 1987 ft 193 kts 244°
2026-05-04 18:29 43.72740 9.93468 1984 ft 181 kts 211°
2026-05-04 18:29 43.71611 9.92852 1987 ft 174 kts 180°
2026-05-04 18:29 43.70460 9.93188 1983 ft 171 kts 150°
2026-05-04 18:30 43.68575 9.95199 1981 ft 171 kts 142°
2026-05-04 18:30 43.67647 9.96231 1982 ft 172 kts 142°
2026-05-04 18:30 43.66715 9.97268 1982 ft 172 kts 142°
2026-05-04 18:31 43.65782 9.98307 1989 ft 172 kts 142°
2026-05-04 18:31 43.64847 9.99346 1993 ft 173 kts 142°
2026-05-04 18:31 43.63902 10.00395 1994 ft 178 kts 142°
2026-05-04 18:31 43.62932 10.01475 1989 ft 179 kts 142°
2026-05-04 18:32 43.61960 10.02555 1989 ft 180 kts 142°
2026-05-04 18:32 43.60986 10.03636 1985 ft 180 kts 142°
2026-05-04 18:32 43.60013 10.04717 1987 ft 179 kts 142°
2026-05-04 18:32 43.59042 10.05796 1987 ft 179 kts 142°
2026-05-04 18:33 43.58072 10.06875 1992 ft 178 kts 142°
2026-05-04 18:33 43.57109 10.07945 1987 ft 177 kts 142°
2026-05-04 18:33 43.56148 10.09011 1987 ft 177 kts 142°
2026-05-04 18:33 43.55191 10.10072 1986 ft 177 kts 142°
2026-05-04 18:34 43.54233 10.11131 1986 ft 176 kts 142°
2026-05-04 18:34 43.53276 10.12190 1986 ft 176 kts 142°
2026-05-04 18:34 43.52320 10.13248 1996 ft 176 kts 142°
2026-05-04 18:34 43.51363 10.14306 1996 ft 176 kts 142°
2026-05-04 18:35 43.50405 10.15364 1993 ft 177 kts 142°
2026-05-04 18:35 43.49453 10.16436 1992 ft 177 kts 137°
2026-05-04 18:35 43.48895 10.17943 2001 ft 185 kts 98°
2026-05-04 18:35 43.49249 10.19672 1991 ft 199 kts 54°
2026-05-04 18:36 43.50336 10.20900 1985 ft 203 kts 41°
2026-05-04 18:36 43.51475 10.22059 1992 ft 204 kts 40°
2026-05-04 18:36 43.52602 10.23212 1994 ft 204 kts 41°
2026-05-04 18:36 43.53734 10.24371 1996 ft 202 kts 41°
2026-05-04 18:37 43.54868 10.25534 2000 ft 203 kts 40°
2026-05-04 18:37 43.55980 10.26673 2026 ft 191 kts 41°
2026-05-04 18:37 43.57000 10.27716 1997 ft 174 kts 40°
2026-05-04 18:37 43.57919 10.28659 1988 ft 158 kts 41°
2026-05-04 18:38 43.58783 10.29548 1983 ft 152 kts 41°
2026-05-04 18:38 43.59622 10.30410 1906 ft 149 kts 41°
2026-05-04 18:38 43.60444 10.31257 1733 ft 146 kts 41°
2026-05-04 18:38 43.61262 10.32098 1542 ft 146 kts 40°
2026-05-04 18:39 43.62077 10.32936 1361 ft 146 kts 39°
2026-05-04 18:39 43.62886 10.33768 1159 ft 144 kts 41°
2026-05-04 18:39 43.63689 10.34595 962 ft 145 kts 38°
2026-05-04 18:39 43.64485 10.35415 759 ft 145 kts 39°
2026-05-04 18:40 43.65298 10.36240 520 ft 144 kts 38°
2026-05-04 18:40 43.66097 10.37074 366 ft 147 kts 40°
2026-05-04 18:40 43.66923 10.37921 189 ft 148 kts 39°
2026-05-04 18:40 43.67744 10.38769 38 ft 146 kts 38°
2026-05-04 18:41 43.68455 10.39518 20 ft 94 kts 36°
2026-05-04 18:41 43.68739 10.39784 17 ft 16 kts 358°
2026-05-04 18:41 43.68806 10.39716 16 ft 10 kts 307°
2026-05-04 18:41 43.68837 10.39659 16 ft 5 kts 308°
2026-05-04 18:42 43.68875 10.39614 17 ft 13 kts 333°
2026-05-04 18:42 43.68964 10.39695 19 ft 18 kts 40°
2026-05-04 18:42 43.69059 10.39800 21 ft 16 kts 38°
2026-05-04 18:42 43.69142 10.39887 23 ft 14 kts 36°
2026-05-04 18:43 43.69222 10.39920 23 ft 11 kts 354°
2026-05-04 18:43 43.69312 10.39904 20 ft 15 kts 352°
2026-05-04 18:43 43.69416 10.39893 16 ft 15 kts
2026-05-04 18:43 43.69513 10.39912 15 ft 14 kts
2026-05-04 18:44 43.69606 10.39933 15 ft 13 kts
2026-05-04 18:44 43.69633 10.39939 15 ft 11 kts
2026-05-04 18:44 43.69681 10.39954 16 ft 0 kts 12°
2026-05-04 18:44 43.69684 10.39955 16 ft 2 kts 12°
2026-05-04 18:45 43.69721 10.39965 15 ft 5 kts
2026-05-04 18:45 43.69751 10.39972 15 ft 3 kts
2026-05-04 18:45 43.69755 10.39973 15 ft 0 kts